Regional Weather Roundup
Issued by NWS Cleveland, OH

Home | Current Version | Previous Version | Text Only | Print | Product List | Glossary Off
Versions: 1 2 3 4 5 6 7 8 9 10 11 12 13 14 15 16 17 18 19 20 21 22 23 24 25 26 27 28 29 30 31 32 33 34 35 36 37 38 39 40 41 42 43 44 45 46 47 48 49 50

000
ASUS41 KCLE 230310
RWRCLE
OHIO REGIONAL WEATHER ROUNDUP
NATIONAL WEATHER SERVICE CLEVELAND, OH
1100 PM EDT WED OCT 22 2014

NOTE: "FAIR" INDICATES FEW OR NO CLOUDS BELOW 12,000 FEET WITH NO
SIGNIFICANT WEATHER AND/OR OBSTRUCTIONS TO VISIBILITY.

OHZ001>008-015>018-024>027-034-035-043-044-230400-
   NORTHWEST OHIO

CITY           SKY/WX    TMP DP  RH WIND       PRES   REMARKS
DEFIANCE       CLEAR     36  34  92 CALM      30.28F
FINDLAY        CLOUDY    46  40  79 W6        30.26F
TOLEDO EXPRESS CLEAR     42  38  85 CALM      30.27F
TOLEDO EXEC    PTCLDY    47  40  76 N3        30.28S
LIMA           CLOUDY    43  39  86 CALM      30.27F
$$

OHZ009>014-019>023-028>033-038-089-230400-
   NORTHEAST OHIO

CITY           SKY/WX    TMP DP  RH WIND       PRES   REMARKS
CLE-HOPKINS    CLOUDY    50  44  80 N9        30.26S
CLE-LAKEFRONT  CLOUDY    52  46  80 N16       30.23S
CUY CO. ARPT   MOCLDY    52  48  87 N12       30.24F
LORAIN-ELYRIA  CLEAR     47  43  86 N7        30.25S
ASHTABULA      CLOUDY    45  43  93 CALM      30.23S
AKRON-CANTON   PTCLDY    45  40  82 NW7       30.22S
WOOSTER        PTCLDY    48  42  80 N9        30.23F
MANSFIELD      MOCLDY    42  40  92 NW7       30.24S
YOUNGSTOWN     CLOUDY    44  41  89 N3        30.20F
$$

OHZ042-051>053-060>062-070>072-077>081-230400-
  SOUTHWEST OHIO

CITY           SKY/WX    TMP DP  RH WIND       PRES   REMARKS
CINC-COVINGTON CLOUDY    50  39  66 NE9       30.26F
CINC-LUNKEN    CLOUDY    50  40  68 NE8       30.29S
HAMILTON       CLOUDY    49  41  74 E8        30.29S
DAYTON         MOCLDY    47  39  74 CALM      30.28F
WRIGHT-PAT AFB CLOUDY    45  40  81 W1        30.27S
DAYTON GENERAL CLOUDY    48  39  71 CALM      30.26F
WILMINGTON     CLOUDY    47  39  74 NE3       30.25F
$$

OHZ036-037-039>041-045>050-054>059-063>069-073>076-082>088-230400-
  CENTRAL AND SOUTHEAST OHIO

CITY           SKY/WX    TMP DP  RH WIND       PRES   REMARKS
COLUMBUS       CLOUDY    49  41  74 N5        30.25S
OSU AIRPORT    CLOUDY    48  41  76 NW5       30.25F
BOLTON FIELD   CLOUDY    47  42  82 W3        30.26S
RICKENBACK AFB CLOUDY    48  42  79 NW5       30.25S
NEWARK         CLOUDY    48  42  80 CALM      30.24S
MARION         MOCLDY    43  39  86 NW8       30.26S
LANCASTER      CLOUDY    48  43  82 CALM      30.25S
ZANESVILLE     CLOUDY    48  40  73 NW6       30.23S
NEW PHILLY     CLEAR     44  41  89 CALM      30.23S
$$



USA.gov is the U.S. government's official web portal to all federal, state and local government web resources and services.